Regional Weather Roundup
Issued by NWS

Home | Current Version | Previous Version | Graphics & Text | Print | Product List | Glossary On
Versions: 1 2 3 4 5 6 7 8 9 10 11 12 13 14 15 16 17 18 19 20 21 22 23 24 25 26 27 28 29 30 31 32 33 34 35 36 37 38 39 40 41 42 43 44 45 46 47 48 49 50
297
ASUS45 KSLC 260310
RWRUT

UTAH REGIONAL WEATHER ROUNDUP
NATIONAL WEATHER SERVICE SALT LAKE CITY UT
900 PM MDT THU MAY 25 2017

UTZ001>011-023>025-260400-

NORTHERN UTAH

CITY           SKY/WX    TMP DP  RH WIND       PRES   REMARKS
BRIGHAM CITY   CLEAR     62  25  23 CALM      29.73F
HILL AFB       CLEAR     60  23  23 CALM      29.74S
LOGAN          CLEAR     59  29  31 NW5       29.76R
OGDEN          CLEAR     58  22  24 N8        29.72S
SALT LAKE CITY PTCLDY    64  30  27 N9        29.70S
TOOELE VALLEY  CLEAR     54  36  50 SW7       29.72S
WENDOVER       CLEAR     66  23  19 NE10      29.70R
HEBER CITY     CLEAR     54  36  50 E3        29.75S
WEST JORDAN    CLEAR     59  38  45 SW5       29.74R

$$

UTZ011>015-024>027-260400-

CENTRAL/NORTHEAST UTAH

CITY           SKY/WX    TMP DP  RH WIND       PRES   REMARKS
PROVO AIRPORT  CLEAR     61  40  45 NW7       29.73R
MOAB/CANYONLAN MOCLDY    67  33  28 E6        29.70R
DELTA          PTCLDY    61  32  33 S6        29.71R
PRICE          PTCLDY    58  32  37 N9        29.78R
ROOSEVELT      CLOUDY    55  34  44 SW5       29.78R
VERNAL         CLOUDY    59  29  31 NW5       29.76R

$$

UTZ013>016-019>022-027-260400-

SOUTHERN UTAH

CITY           SKY/WX    TMP DP  RH WIND       PRES   REMARKS
BRYCE CANYON   CLOUDY    53  32  44 NW5       29.88F
CEDAR CITY     MOCLDY    64  32  30 NE6       29.73R
MILFORD        MOCLDY    69  33  26 N8        29.69S
ST GEORGE      CLEAR     86  20   9 SW18      29.55R
HANKSVILLE     CLOUDY    72  32  23 W10G16    29.76R
BLANDING       MOCLDY    68  26  21 N20       29.84R

$$

REGIONAL REPORTS     COLORADO/ARIZONA

CITY           SKY/WX    TMP DP  RH WIND       PRES   REMARKS
CRAIG, CO      RAIN      47  43  86 S6        29.91R FOG
GRAND JUNCTION CLOUDY    65  36  34 N23       29.76R
RIFLE, CO      CLOUDY    57  41  55 NW28G54   29.83R
MONTROSE, CO   CLOUDY    66  30  26 NW9       29.80R
CORTEZ, CO     CLOUDY    63  34  33 E9        29.78R
COLORADO CITY    N/A     77  21  12 SW9G16    29.74R
PAGE, AZ       PTCLDY    83  16   8 SW10G22   29.66R
GRAND CANYON   PTCLDY    65  14  14 SW18G25   29.92R
KINGMAN, AZ    CLEAR     80  17   9 S18G30    29.71R
FLAGSTAFF, AZ  CLEAR     61   7  11 SW9G20    29.97R

$$

REGIONAL REPORTS    NEVADA/IDAHO/WYOMING

CITY           SKY/WX    TMP DP  RH WIND       PRES   REMARKS
LAS VEGAS, NV  PTCLDY    90   6   4 SW13G22   29.53R
ELY, NY        CLEAR     58  19  22 W7        29.73R
ELKO, NV       CLEAR     63  26  24 NW3       29.69R
POCATELLO, ID  MOCLDY    57  31  37 S3        29.78R
BURLEY, ID     MOCLDY    59  31  34 N3        29.74S
FORT BRIDGER,    N/A     47  21  35 W3        29.90R
EVANSTON, WY   CLEAR     49  21  33 NW6       29.86R
ROCK SPRINGS,  CLOUDY    51  18  27 NW9       29.85R
KEMMERER, WY     N/A     43  25  49 NW8       29.88R

$$




USA.gov is the U.S. government's official web portal to all federal, state and local government web resources and services.